Time,TemperatureF,DewpointF,PressureIn,WindDirection,WindDirectionDegrees,WindSpeedMPH,WindSpeedGustMPH,Humidity,HourlyPrecipIn,Conditions,Clouds,dailyrainin,SolarRadiationWatts/m^2,SoftwareType,DateUTC
2013-05-29 00:01:00,45.0,42.0,-100.00,East,101,4.0,5.0,89,0.00,,,0.79,0.000000,,2013-05-29 06:01:00,
2013-05-29 00:11:00,45.0,42.0,-100.00,East,101,4.0,5.0,89,0.00,,,0.79,0.000000,,2013-05-29 06:11:00,
2013-05-29 00:42:00,45.0,43.0,-100.00,ENE,65,3.0,6.0,91,0.00,,,0.78,0.000000,,2013-05-29 06:42:00,
2013-05-29 00:52:00,45.0,43.0,-100.00,ENE,65,3.0,6.0,91,0.00,,,0.78,0.000000,,2013-05-29 06:52:00,
2013-05-29 01:01:00,45.0,43.0,-100.00,ENE,65,3.0,6.0,91,0.00,,,0.78,0.000000,,2013-05-29 07:01:00,
2013-05-29 01:11:00,45.0,43.0,-100.00,ENE,65,3.0,6.0,91,0.00,,,0.78,0.000000,,2013-05-29 07:11:00,
2013-05-29 01:34:00,44.0,42.0,-100.00,SSE,166,3.0,6.0,92,0.00,,,0.75,0.000000,,2013-05-29 07:34:00,
2013-05-29 01:42:00,44.0,42.0,-100.00,SSE,166,3.0,6.0,92,0.00,,,0.75,0.000000,,2013-05-29 07:42:00,
2013-05-29 01:52:00,44.0,42.0,-100.00,SSE,166,3.0,6.0,92,0.00,,,0.75,0.000000,,2013-05-29 07:52:00,
2013-05-29 02:02:00,44.0,42.0,-100.00,SSE,166,3.0,6.0,92,0.00,,,0.75,0.000000,,2013-05-29 08:02:00,
2013-05-29 02:11:00,44.0,42.0,-100.00,SSE,166,3.0,6.0,92,0.00,,,0.75,0.000000,,2013-05-29 08:11:00,
2013-05-29 02:32:00,44.0,41.0,-100.00,ESE,121,4.0,7.0,88,0.00,,,0.63,0.000000,,2013-05-29 08:32:00,
2013-05-29 02:42:00,44.0,41.0,-100.00,ESE,121,4.0,7.0,88,0.00,,,0.63,0.000000,,2013-05-29 08:42:00,
2013-05-29 02:52:00,44.0,41.0,-100.00,ESE,121,4.0,7.0,88,0.00,,,0.63,0.000000,,2013-05-29 08:52:00,
2013-05-29 03:01:00,44.0,41.0,-100.00,ESE,121,4.0,7.0,88,0.00,,,0.63,0.000000,,2013-05-29 09:01:00,
2013-05-29 03:11:00,44.0,41.0,-100.00,ESE,121,4.0,7.0,88,0.00,,,0.63,0.000000,,2013-05-29 09:11:00,
2013-05-29 03:42:00,43.0,41.0,-100.00,SE,124,5.0,6.0,92,0.00,,,0.50,0.000000,,2013-05-29 09:42:00,
2013-05-29 03:52:00,43.0,41.0,-100.00,SE,124,5.0,6.0,92,0.00,,,0.50,0.000000,,2013-05-29 09:52:00,
2013-05-29 04:02:00,43.0,41.0,-100.00,SE,124,5.0,6.0,92,0.00,,,0.50,0.000000,,2013-05-29 10:02:00,
2013-05-29 04:12:00,43.0,41.0,-100.00,SE,124,5.0,6.0,92,0.00,,,0.50,0.000000,,2013-05-29 10:12:00,
2013-05-29 04:33:00,44.0,41.0,-100.00,SE,126,4.0,6.0,88,0.00,,,0.40,0.000000,,2013-05-29 10:33:00,
2013-05-29 04:42:00,44.0,41.0,-100.00,SE,126,4.0,6.0,88,0.00,,,0.40,0.000000,,2013-05-29 10:42:00,
2013-05-29 04:53:00,44.0,41.0,-100.00,SE,126,4.0,6.0,88,0.00,,,0.40,0.000000,,2013-05-29 10:53:00,
2013-05-29 05:02:00,44.0,41.0,-100.00,SE,126,4.0,6.0,88,0.00,,,0.40,0.000000,,2013-05-29 11:02:00,
2013-05-29 05:11:00,44.0,41.0,-100.00,SE,126,4.0,6.0,88,0.00,,,0.40,0.000000,,2013-05-29 11:11:00,
2013-05-29 05:32:00,43.0,40.0,-100.00,SE,124,5.0,8.0,88,0.00,,,0.31,0.000000,,2013-05-29 11:32:00,
2013-05-29 05:42:00,43.0,40.0,-100.00,SE,124,5.0,8.0,88,0.00,,,0.31,0.000000,,2013-05-29 11:42:00,
2013-05-29 05:52:00,43.0,40.0,-100.00,SE,124,5.0,8.0,88,0.00,,,0.31,0.000000,,2013-05-29 11:52:00,
2013-05-29 06:01:00,43.0,40.0,-100.00,SE,124,5.0,8.0,88,0.00,,,0.31,0.000000,,2013-05-29 12:01:00,
2013-05-29 06:11:00,43.0,40.0,-100.00,SE,124,5.0,8.0,88,0.00,,,0.31,0.000000,,2013-05-29 12:11:00,
2013-05-29 06:42:00,42.0,39.0,-100.00,ESE,116,5.0,7.0,90,0.00,,,0.27,3.000000,,2013-05-29 12:42:00,
2013-05-29 06:52:00,42.0,39.0,-100.00,ESE,116,5.0,7.0,90,0.00,,,0.27,3.000000,,2013-05-29 12:52:00,
2013-05-29 07:01:00,42.0,39.0,-100.00,ESE,116,5.0,7.0,90,0.00,,,0.27,3.000000,,2013-05-29 13:01:00,
2013-05-29 07:11:00,42.0,39.0,-100.00,ESE,116,5.0,7.0,90,0.00,,,0.27,3.000000,,2013-05-29 13:11:00,
2013-05-29 07:32:00,41.0,39.0,-100.00,SE,129,2.0,6.0,94,0.00,,,0.23,53.000000,,2013-05-29 13:32:00,
2013-05-29 07:42:00,41.0,39.0,-100.00,SE,129,2.0,6.0,94,0.00,,,0.23,53.000000,,2013-05-29 13:42:00,
2013-05-29 07:53:00,41.0,39.0,-100.00,SE,129,2.0,6.0,94,0.00,,,0.23,53.000000,,2013-05-29 13:53:00,
2013-05-29 08:01:00,41.0,39.0,-100.00,SE,129,2.0,6.0,94,0.00,,,0.23,53.000000,,2013-05-29 14:01:00,
2013-05-29 08:11:00,41.0,39.0,-100.00,SE,129,2.0,6.0,94,0.00,,,0.23,53.000000,,2013-05-29 14:11:00,
2013-05-29 08:32:00,48.0,42.0,-100.00,SE,146,3.0,7.0,80,0.00,,,0.21,281.000000,,2013-05-29 14:32:00,
2013-05-29 08:42:00,48.0,42.0,-100.00,SE,146,3.0,7.0,80,0.00,,,0.21,281.000000,,2013-05-29 14:42:00,
2013-05-29 08:52:00,48.0,42.0,-100.00,SE,146,3.0,7.0,80,0.00,,,0.21,281.000000,,2013-05-29 14:52:00,
2013-05-29 09:01:00,48.0,42.0,-100.00,SE,146,3.0,7.0,80,0.00,,,0.21,281.000000,,2013-05-29 15:01:00,
2013-05-29 09:11:00,48.0,42.0,-100.00,SE,146,3.0,7.0,80,0.00,,,0.21,281.000000,,2013-05-29 15:11:00,
2013-05-29 09:33:00,49.0,43.0,-100.00,SSE,161,4.0,9.0,80,0.00,,,0.20,430.000000,,2013-05-29 15:33:00,
2013-05-29 09:42:00,49.0,43.0,-100.00,SSE,161,4.0,9.0,80,0.00,,,0.20,430.000000,,2013-05-29 15:42:00,
2013-05-29 09:53:00,49.0,43.0,-100.00,SSE,161,4.0,9.0,80,0.00,,,0.20,430.000000,,2013-05-29 15:53:00,
2013-05-29 10:03:00,49.0,43.0,-100.00,SSE,161,4.0,9.0,80,0.00,,,0.20,430.000000,,2013-05-29 16:03:00,
2013-05-29 10:12:00,49.0,43.0,-100.00,SSE,161,4.0,9.0,80,0.00,,,0.20,430.000000,,2013-05-29 16:12:00,
2013-05-29 10:33:00,54.0,41.0,-100.00,SSE,152,3.0,10.0,62,0.00,,,0.18,598.000000,,2013-05-29 16:33:00,
2013-05-29 10:42:00,54.0,41.0,-100.00,SSE,152,3.0,10.0,62,0.00,,,0.18,598.000000,,2013-05-29 16:42:00,
2013-05-29 10:52:00,54.0,41.0,-100.00,SSE,152,3.0,10.0,62,0.00,,,0.18,598.000000,,2013-05-29 16:52:00,
2013-05-29 11:02:00,54.0,41.0,-100.00,SSE,152,3.0,10.0,62,0.00,,,0.18,598.000000,,2013-05-29 17:02:00,
2013-05-29 11:12:00,54.0,41.0,-100.00,SSE,152,3.0,10.0,62,0.00,,,0.18,598.000000,,2013-05-29 17:12:00,
2013-05-29 11:32:00,56.0,39.0,-100.00,East,99,3.0,9.0,52,0.00,,,0.16,819.000000,,2013-05-29 17:32:00,
2013-05-29 11:43:00,56.0,39.0,-100.00,East,99,3.0,9.0,52,0.00,,,0.16,819.000000,,2013-05-29 17:43:00,
2013-05-29 11:52:00,56.0,39.0,-100.00,East,99,3.0,9.0,52,0.00,,,0.16,819.000000,,2013-05-29 17:52:00,
2013-05-29 12:01:00,56.0,39.0,-100.00,East,99,3.0,9.0,52,0.00,,,0.16,819.000000,,2013-05-29 18:01:00,
2013-05-29 12:13:00,56.0,39.0,-100.00,East,99,3.0,9.0,52,0.00,,,0.16,819.000000,,2013-05-29 18:13:00,
2013-05-29 12:42:00,59.0,37.0,-100.00,South,191,4.0,9.0,43,0.00,,,0.15,1087.000000,,2013-05-29 18:42:00,
2013-05-29 12:52:00,59.0,37.0,-100.00,South,191,4.0,9.0,43,0.00,,,0.15,1087.000000,,2013-05-29 18:52:00,
2013-05-29 13:01:00,59.0,37.0,-100.00,South,191,4.0,9.0,43,0.00,,,0.15,1087.000000,,2013-05-29 19:01:00,
2013-05-29 13:11:00,59.0,37.0,-100.00,South,191,4.0,9.0,43,0.00,,,0.15,1087.000000,,2013-05-29 19:11:00,
2013-05-29 13:44:00,59.0,34.0,-100.00,West,265,7.0,11.0,39,0.00,,,0.15,1150.000000,,2013-05-29 19:44:00,
2013-05-29 13:53:00,59.0,34.0,-100.00,West,265,7.0,11.0,39,0.00,,,0.15,1150.000000,,2013-05-29 19:53:00,
2013-05-29 14:02:00,59.0,34.0,-100.00,West,265,7.0,11.0,39,0.00,,,0.15,1150.000000,,2013-05-29 20:02:00,
2013-05-29 14:11:00,59.0,34.0,-100.00,West,265,7.0,11.0,39,0.00,,,0.15,1150.000000,,2013-05-29 20:11:00,
2013-05-29 14:33:00,58.0,34.0,-100.00,West,267,7.0,12.0,41,0.00,,,0.15,866.000000,,2013-05-29 20:33:00,
2013-05-29 14:42:00,58.0,34.0,-100.00,West,267,7.0,12.0,41,0.00,,,0.15,866.000000,,2013-05-29 20:42:00,
2013-05-29 14:52:00,58.0,34.0,-100.00,West,267,7.0,12.0,41,0.00,,,0.15,866.000000,,2013-05-29 20:52:00,
2013-05-29 15:02:00,58.0,34.0,-100.00,West,267,7.0,12.0,41,0.00,,,0.15,866.000000,,2013-05-29 21:02:00,
2013-05-29 15:12:00,58.0,34.0,-100.00,West,267,7.0,12.0,41,0.00,,,0.15,866.000000,,2013-05-29 21:12:00,
2013-05-29 15:44:00,51.0,39.0,-100.00,East,100,12.0,22.0,64,0.03,,,0.17,202.000000,,2013-05-29 21:44:00,
2013-05-29 15:53:00,51.0,39.0,-100.00,East,100,12.0,22.0,64,0.03,,,0.17,202.000000,,2013-05-29 21:53:00,
2013-05-29 16:03:00,51.0,39.0,-100.00,East,100,12.0,22.0,64,0.03,,,0.17,202.000000,,2013-05-29 22:03:00,
2013-05-29 16:12:00,51.0,39.0,-100.00,East,100,12.0,22.0,64,0.03,,,0.17,202.000000,,2013-05-29 22:12:00,
2013-05-29 16:34:00,60.0,38.0,-100.00,WNW,301,3.0,16.0,44,0.00,,,0.10,841.000000,,2013-05-29 22:34:00,
2013-05-29 16:42:00,60.0,38.0,-100.00,WNW,301,3.0,16.0,44,0.00,,,0.10,841.000000,,2013-05-29 22:42:00,
2013-05-29 16:53:00,60.0,38.0,-100.00,WNW,301,3.0,16.0,44,0.00,,,0.10,841.000000,,2013-05-29 22:53:00,
2013-05-29 17:02:00,60.0,38.0,-100.00,WNW,301,3.0,16.0,44,0.00,,,0.10,841.000000,,2013-05-29 23:02:00,
2013-05-29 17:12:00,60.0,38.0,-100.00,WNW,301,3.0,16.0,44,0.00,,,0.10,841.000000,,2013-05-29 23:12:00,
2013-05-29 17:33:00,60.0,39.0,-100.00,NNW,333,6.0,11.0,45,0.00,,,0.10,619.000000,,2013-05-29 23:33:00,
2013-05-29 17:42:00,60.0,39.0,-100.00,NNW,333,6.0,11.0,45,0.00,,,0.10,619.000000,,2013-05-29 23:42:00,
2013-05-29 17:53:00,60.0,39.0,-100.00,NNW,333,6.0,11.0,45,0.00,,,0.10,619.000000,,2013-05-29 23:53:00,
2013-05-29 18:01:00,60.0,39.0,-100.00,NNW,333,6.0,11.0,45,0.00,,,0.10,619.000000,,2013-05-30 00:01:00,
2013-05-29 18:11:00,60.0,39.0,-100.00,NNW,333,6.0,11.0,45,0.00,,,0.10,619.000000,,2013-05-30 00:11:00,
2013-05-29 19:32:00,56.0,40.0,-100.00,NNW,340,3.0,11.0,54,-99.99,,,-99.99,126.000000,,2013-05-30 01:32:00,
2013-05-29 19:42:00,56.0,40.0,-100.00,NNW,340,3.0,11.0,54,-99.99,,,-99.99,126.000000,,2013-05-30 01:42:00,
2013-05-29 19:52:00,56.0,40.0,-100.00,NNW,340,3.0,11.0,54,-99.99,,,-99.99,126.000000,,2013-05-30 01:52:00,
2013-05-29 20:01:00,56.0,40.0,-100.00,NNW,340,3.0,11.0,54,-99.99,,,-99.99,126.000000,,2013-05-30 02:01:00,
2013-05-29 20:11:00,56.0,40.0,-100.00,NNW,340,3.0,11.0,54,-99.99,,,-99.99,126.000000,,2013-05-30 02:11:00,
2013-05-29 21:01:00,50.0,38.0,-100.00,SW,220,13.0,24.0,63,0.00,,,0.03,59.000000,,2013-05-30 03:01:00,
2013-05-29 21:11:00,50.0,38.0,-100.00,SW,220,13.0,24.0,63,0.00,,,0.03,59.000000,,2013-05-30 03:11:00,
2013-05-29 21:33:00,44.0,41.0,-100.00,SE,133,10.0,24.0,88,0.14,,,0.17,1.000000,,2013-05-30 03:33:00,
2013-05-29 22:02:00,44.0,41.0,-100.00,SE,133,10.0,24.0,88,0.14,,,0.17,1.000000,,2013-05-30 04:02:00,
2013-05-29 22:12:00,44.0,41.0,-100.00,SE,133,10.0,24.0,88,0.14,,,0.17,1.000000,,2013-05-30 04:12:00,
2013-05-29 22:33:00,43.0,39.0,-100.00,ESE,113,6.0,17.0,86,0.17,,,0.34,0.000000,,2013-05-30 04:33:00,
2013-05-29 22:42:00,43.0,39.0,-100.00,ESE,113,6.0,17.0,86,0.17,,,0.34,0.000000,,2013-05-30 04:42:00,
2013-05-29 22:53:00,43.0,39.0,-100.00,ESE,113,6.0,17.0,86,0.17,,,0.34,0.000000,,2013-05-30 04:53:00,
2013-05-29 23:02:00,43.0,39.0,-100.00,ESE,113,6.0,17.0,86,0.17,,,0.34,0.000000,,2013-05-30 05:02:00,
2013-05-29 23:12:00,43.0,39.0,-100.00,ESE,113,6.0,17.0,86,0.17,,,0.34,0.000000,,2013-05-30 05:12:00,
2013-05-29 23:32:00,43.0,40.0,-100.00,SSE,163,5.0,10.0,88,0.01,,,0.35,0.000000,,2013-05-30 05:32:00,
2013-05-29 23:43:00,43.0,40.0,-100.00,SSE,163,5.0,10.0,88,0.01,,,0.35,0.000000,,2013-05-30 05:43:00,
2013-05-29 23:52:00,43.0,40.0,-100.00,SSE,163,5.0,10.0,88,0.01,,,0.35,0.000000,,2013-05-30 05:52:00,